TRA2L EHEH-EDDS

Flight info

Callsign TRA2L
Flight time N/A
Altitude 23000
Route LNO6K LNO Z283 RITAX M624 DIK M150 KRH T128 BADSO BADS2A
Aircraft A21N/M-SDE2E3FGHIRWXY/LB1

Departure

Time 2026-05-07 15:40
Airport Eindhoven Airport (EHEH)

Arrival

Time N/A
Airport Stuttgart Airport (EDDS)
Time Latitude Longitude Altitude Speed Heading
2026-05-07 15:27 51.45722 5.38889 70 ft 0 kts 124°
2026-05-07 15:34 51.45730 5.38871 69 ft 4 kts 122°
2026-05-07 15:34 51.45741 5.38837 67 ft 3 kts 112°
2026-05-07 15:34 51.45747 5.38809 66 ft 2 kts 93°
2026-05-07 15:35 51.45746 5.38792 68 ft 2 kts 69°
2026-05-07 15:35 51.45740 5.38776 64 ft 2 kts 48°
2026-05-07 15:35 51.45732 5.38764 67 ft 2 kts 39°
2026-05-07 15:35 51.45724 5.38753 68 ft 0 kts 37°
2026-05-07 15:38 51.45722 5.38751 75 ft 0 kts 37°
2026-05-07 15:38 51.45740 5.38772 70 ft 3 kts 37°
2026-05-07 15:38 51.45790 5.38780 72 ft 13 kts 330°
2026-05-07 15:39 51.45856 5.38633 77 ft 20 kts 304°
2026-05-07 15:39 51.45903 5.38466 78 ft 12 kts 252°
2026-05-07 15:39 51.45717 5.38241 71 ft 65 kts 214°
2026-05-07 15:39 51.45174 5.37633 77 ft 127 kts 215°
2026-05-07 15:40 51.44301 5.36650 294 ft 163 kts 215°
2026-05-07 15:40 51.43382 5.35614 1033 ft 166 kts 215°
2026-05-07 15:40 51.42395 5.34514 1650 ft 175 kts 214°
2026-05-07 15:40 51.41344 5.33497 2385 ft 179 kts 197°
2026-05-07 15:41 51.40121 5.33617 3021 ft 182 kts 153°
2026-05-07 15:41 51.39073 5.34922 3334 ft 208 kts 134°
2026-05-07 15:41 51.38036 5.36774 3615 ft 235 kts 118°
2026-05-07 15:41 51.37443 5.39246 4243 ft 248 kts 103°
2026-05-07 15:42 51.37123 5.42042 4956 ft 261 kts 97°
2026-05-07 15:42 51.36945 5.44992 5520 ft 268 kts 93°
2026-05-07 15:42 51.36859 5.47983 5805 ft 270 kts 91°
2026-05-07 15:42 51.36829 5.51000 5928 ft 270 kts 90°
2026-05-07 15:43 51.36829 5.54000 6023 ft 269 kts 89°
2026-05-07 15:43 51.36836 5.56965 6123 ft 271 kts 89°
2026-05-07 15:43 51.36590 5.59945 6369 ft 272 kts 107°
2026-05-07 15:43 51.35931 5.62793 7057 ft 273 kts 114°
2026-05-07 15:44 51.35114 5.65559 7895 ft 277 kts 117°
2026-05-07 15:44 51.34184 5.68295 8740 ft 282 kts 120°
2026-05-07 15:44 51.33169 5.71010 9388 ft 285 kts 122°
2026-05-07 15:44 51.32097 5.73703 9750 ft 291 kts 124°
2026-05-07 15:45 51.30970 5.76422 9905 ft 293 kts 125°
2026-05-07 15:45 51.29829 5.79106 9968 ft 292 kts 125°
2026-05-07 15:45 51.28671 5.81779 9986 ft 293 kts 126°
2026-05-07 15:45 51.27508 5.84440 10000 ft 292 kts 126°
2026-05-07 15:46 51.24240 5.88930 10018 ft 346 kts 154°
2026-05-07 15:46 51.21887 5.90456 10009 ft 371 kts 164°
2026-05-07 15:46 51.19421 5.91385 9998 ft 366 kts 170°
2026-05-07 15:47 51.16905 5.92057 10004 ft 367 kts 172°
2026-05-07 15:47 51.14364 5.92601 10002 ft 367 kts 174°
2026-05-07 15:47 51.11817 5.92706 10006 ft 365 kts 185°
2026-05-07 15:47 51.09296 5.92174 10000 ft 366 kts 190°
2026-05-07 15:48 51.06794 5.91422 10128 ft 367 kts 192°
2026-05-07 15:48 51.04330 5.90565 10753 ft 367 kts 193°
2026-05-07 15:48 51.01835 5.89626 11550 ft 370 kts 194°
2026-05-07 15:48 50.99319 5.88630 12319 ft 374 kts 195°
2026-05-07 15:49 50.96781 5.87591 13073 ft 378 kts 195°
2026-05-07 15:49 50.94222 5.86520 13832 ft 382 kts 195°
2026-05-07 15:49 50.91636 5.85420 14502 ft 386 kts 196°
2026-05-07 15:49 50.89034 5.84302 15163 ft 390 kts 196°
2026-05-07 15:50 50.86407 5.83165 15816 ft 393 kts 196°
2026-05-07 15:50 50.84651 5.82402 16248 ft 395 kts 196°
2026-05-07 15:50 50.81989 5.81243 16881 ft 399 kts 197°
2026-05-07 15:50 50.79292 5.80066 17518 ft 402 kts 197°
2026-05-07 15:51 50.76584 5.78881 18150 ft 406 kts 197°
2026-05-07 15:51 50.73847 5.77684 18701 ft 409 kts 197°
2026-05-07 15:51 50.71091 5.76479 19250 ft 412 kts 197°
2026-05-07 15:51 50.68314 5.75266 19800 ft 415 kts 197°